SCP
0 0 0 0 0 0 0 0 0 0 0 0 0 0 0 0 0 0 0 0 0 0
0 0 0 0 0 0 0 0 0 0 0 0 0 0 0 0 0 0 0 0 0 0
0 0 0 0 0 0 0 0 0 0 0 0 0 0 0 0 0 0 0 0 0 0
0 0 0 0 0 0 0 0 0 0 0 0 0 0 0 0 0 0 0 0 -0 -0
0 0 0 0 0 0 -0 0 -0 -0 -0 -0 -0 -0 0 0 0 0 0 0 0 0
0 0 0 -0 -0 0 -0 -0 -0 -0 -0 0 -0 -0 -0 0 0 -0 0 0 0 0
0 0 0 0 0 0 -0 0 0 0 -0 -0 0 -0 -0 -0 -0 -0 -0 0 0 0
0 0 0 0 0 0 0 0 0 0 -0 -0 -0 -0 0 0 -0 -0 0 -0 -0 -0
0 0 0 0 0 0 0 0 0 0 0 0 0 0 0 0 0 0 0 0 0 -0
0 0 0 0 0 0 0 0 0 0 0 0 0 0 0 0 0 0 0 0 0 0
0 0 0 0 0 0 0 0 0 0 0 0 0 0 0 0 0 0 0 0 0 0
0 0 0 0 0 0 0 0 0 0 0 0 0 0 0 0 0 0 0 0 0 0
0 0 0 0 0 0 0 0 0 0 0 0 0 0 0 0 0 0 0 0 0 0
0 0 0 0 0 0 0 0 0 0 0 0 0 0 0 0 0 0 0 0 0 0
Wind_Speed_500mb
34 31 31 30 32 32 29 25 25 20 19 18 16 16 19 15 12 12 13 10 14 14
36 31 31 35 36 29 31 27 23 19 17 18 17 19 20 16 13 9 10 9 9 9
36 40 45 42 40 34 31 28 22 18 17 15 16 19 24 25 15 9 6 5 6 8
43 42 35 30 29 29 25 18 16 19 21 15 13 17 19 18 23 20 15 13 8 10
32 34 34 30 27 23 11 9 11 17 19 18 16 14 12 15 13 12 10 14 9 8
35 42 28 32 27 21 17 6 9 13 16 21 21 15 14 14 11 12 9 10 13 11
38 32 30 28 32 19 16 11 6 14 17 17 15 15 12 10 10 12 11 11 12 11
40 36 28 25 31 28 15 13 14 14 12 13 16 20 15 12 9 5 3 5 7 12
33 35 31 26 30 32 29 21 18 17 20 21 19 22 19 15 13 8 4 7 8 8
39 42 35 31 29 28 28 22 21 17 16 15 13 15 15 11 9 9 6 6 10 11
33 38 36 33 34 35 36 35 36 33 30 28 25 21 18 18 19 18 17 16 24 20
26 26 30 29 30 28 30 31 33 29 33 46 45 38 30 25 27 32 32 27 21 21
29 33 36 36 45 43 34 34 34 39 44 39 43 44 25 25 28 31 32 27 25 26
25 32 34 34 39 53 53 56 51 47 43 41 39 47 48 36 20 25 24 25 23 24
Wind_Direction_500mb
324 327 326 328 330 328 327 322 319 321 328 339 342 343 340 326 313 283 266 245 259 273
334 334 330 326 324 323 329 331 334 342 356 353 7 15 6 350 328 282 265 269 255 258
341 333 321 314 314 313 315 329 339 348 342 1 17 26 37 27 43 79 90 55 356 297
339 339 339 331 326 325 311 327 1 22 21 7 18 28 30 30 54 53 74 64 36 342
355 360 355 350 342 340 340 350 4 5 9 10 15 15 4 10 22 43 29 15 18 12
359 1 6 3 1 5 334 332 13 10 8 5 6 355 344 333 330 325 321 324 348 344
352 3 15 15 19 25 18 53 30 4 358 354 352 348 344 321 312 301 297 307 314 325
15 20 25 24 25 38 53 31 6 5 13 13 26 38 40 39 10 16 5 343 343 314
28 32 34 23 23 36 39 46 58 47 60 50 41 37 37 48 25 29 56 47 14 330
30 40 42 41 42 47 53 50 48 44 36 33 24 7 15 37 21 48 77 72 53 45
35 40 41 41 40 54 56 63 66 60 56 55 59 51 44 57 63 68 82 88 96 72
30 22 35 36 46 59 57 54 52 50 53 65 61 57 67 75 70 77 87 89 71 65
33 51 64 58 57 59 59 58 57 67 79 66 64 53 65 74 63 86 83 70 64 71
57 79 73 56 65 69 66 74 74 74 70 61 57 53 59 85 85 75 67 73 70 79
Wind_Speed_850mb
34 31 31 30 32 32 29 25 25 20 19 18 16 16 19 15 12 12 13 10 14 14
36 31 31 35 36 29 31 27 23 19 17 18 17 19 20 16 13 9 10 9 9 9
36 40 45 42 40 34 31 28 22 18 17 15 16 19 24 25 15 9 6 5 6 8
43 42 35 30 29 29 25 18 16 19 21 15 13 17 19 18 23 20 15 13 8 10
32 34 34 30 27 23 11 9 11 17 19 18 16 14 12 15 13 12 10 14 9 8
35 42 28 32 27 21 17 6 9 13 16 21 21 15 14 14 11 12 9 10 13 11
38 32 30 28 32 19 16 11 6 14 17 17 15 15 12 10 10 12 11 11 12 11
40 36 28 25 31 28 15 13 14 14 12 13 16 20 15 12 9 5 3 5 7 12
33 35 31 26 30 32 29 21 18 17 20 21 19 22 19 15 13 8 4 7 8 8
39 42 35 31 29 28 28 22 21 17 16 15 13 15 15 11 9 9 6 6 10 11
33 38 36 33 34 35 36 35 36 33 30 28 25 21 18 18 19 18 17 16 24 20
26 26 30 29 30 28 30 31 33 29 33 46 45 38 30 25 27 32 32 27 21 21
29 33 36 36 45 43 34 34 34 39 44 39 43 44 25 25 28 31 32 27 25 26
25 32 34 34 39 53 53 56 51 47 43 41 39 47 48 36 20 25 24 25 23 24
Wind_Direction_850mb
324 327 326 328 330 328 327 322 319 321 328 339 342 343 340 326 313 283 266 245 259 273
334 334 330 326 324 323 329 331 334 342 356 353 7 15 6 350 328 282 265 269 255 258
341 333 321 314 314 313 315 329 339 348 342 1 17 26 37 27 43 79 90 55 356 297
339 339 339 331 326 325 311 327 1 22 21 7 18 28 30 30 54 53 74 64 36 342
355 360 355 350 342 340 340 350 4 5 9 10 15 15 4 10 22 43 29 15 18 12
359 1 6 3 1 5 334 332 13 10 8 5 6 355 344 333 330 325 321 324 348 344
352 3 15 15 19 25 18 53 30 4 358 354 352 348 344 321 312 301 297 307 314 325
15 20 25 24 25 38 53 31 6 5 13 13 26 38 40 39 10 16 5 343 343 314
28 32 34 23 23 36 39 46 58 47 60 50 41 37 37 48 25 29 56 47 14 330
30 40 42 41 42 47 53 50 48 44 36 33 24 7 15 37 21 48 77 72 53 45
35 40 41 41 40 54 56 63 66 60 56 55 59 51 44 57 63 68 82 88 96 72
30 22 35 36 46 59 57 54 52 50 53 65 61 57 67 75 70 77 87 89 71 65
33 51 64 58 57 59 59 58 57 67 79 66 64 53 65 74 63 86 83 70 64 71
57 79 73 56 65 69 66 74 74 74 70 61 57 53 59 85 85 75 67 73 70 79